User: anonymous   Login
Location: Unspecified
(0.0000°N, 0.0000°E)
Time: 01:05:58
(UTC+00:00)
Language:

POEM 2 - Orbit

View from above orbital plane
View from above orbital plane
View from above satellite
View from above satellite

Ground track
Ground track

The orbit is defined by the following mean orbital elements,

1 56308U          26145.38208227 +.00000000 +00000-0 +12426-3 0 00003
2 56308   9.8886  67.6731 0020985 327.9410  31.9526 14.94905169    07
Epoch (UTC): 25 May 2026 09:10:11
Eccentricity: 0.0020985
inclination: 9.8886°
perigee height: 568 km
apogee height: 597 km
right ascension of ascending node: 67.6731°
argument of perigee: 327.9410°
revolutions per day: 14.94905169
mean anomaly at epoch: 31.9526°

The dashed part of the orbit path shows where the satellite is in the earth's shadow,  

DLR